#timestamp,LO_Frequency,Hit,StdDev 
1504335615.7,286047002.2,N,1.0
1504335635.5,286047001.6,N,1.0
1504335655.4,286047001.5,N,1.0
1504335675.2,286047002.3,N,1.0
1504335695.0,286047002.7,N,1.1
1504335695.9,286047002.7,N,1.1
1504335715.8,286047002.1,N,1.1
1504335735.6,286047000.2,N,1.1
1504335755.4,286047002.8,N,1.1
1504335775.3,286047001.5,N,1.0
1504335795.1,286047001.8,N,1.0
1504335815.9,286047001.4,N,1.0
1504335835.7,286047001.4,N,0.9
1504335855.5,286047001.7,N,0.9
1504335875.4,286047004.4,Y,0.0
1504335895.2,286047002.3,P,0.4
1504335915.1,286047002.4,P,0.4
1504335916.0,286047002.4,P,0.3
1504335935.8,286047002.4,Y,0.0
1504335955.6,286047001.2,P,0.5
1504335975.5,286046998.3,P,1.6
1504335995.3,286046998.1,N,1.8
1504336015.2,286047000.8,N,1.6
1504336035.9,286047001.2,N,1.5
1504336055.7,286046998.7,N,1.5
1504336075.6,286047000.4,N,1.4
1504336095.4,286046998.2,N,1.5
1504336115.3,286047001.2,N,1.5
1504336135.1,286047000.9,N,1.4
1504336136.0,286047000.9,N,1.4
1504336155.8,286047000.8,N,1.3
1504336175.7,286047000.8,N,1.3
1504336195.5,286046998.5,N,1.3
1504336215.3,286047001.2,N,1.3
1504336235.2,286047001.2,N,1.3
1504336255.0,286047000.7,N,1.3
1504336255.9,286047000.7,N,1.2
1504336275.8,286047000.5,N,1.2
1504336295.6,286047000.0,N,1.2
1504336315.4,286047002.7,N,1.2
1504336335.3,286047001.8,N,1.2
1504336355.1,286046999.8,N,1.2
1504336375.9,286047000.3,N,1.2
1504336395.7,286047000.6,N,1.2
1504336415.5,286046998.2,N,1.2
1504336435.4,286047000.6,N,1.2
1504336455.2,286047000.6,N,1.2
1504336475.0,286047000.8,N,1.2
1504336475.9,286047000.8,N,1.1
1504336495.8,286047000.7,N,1.1
1504336515.6,286046998.4,N,1.1
1504336535.5,286047001.1,N,1.0
1504336555.3,286047001.2,N,1.1
1504336575.1,286047001.1,N,1.0
1504336595.9,286047000.6,N,1.0
1504336615.7,286047001.0,N,1.0
1504336635.6,286047000.5,N,0.9
1504336655.4,286047001.0,N,0.9
1504336675.2,286047000.3,N,0.9
1504336695.1,286046999.7,N,0.9
1504336696.0,286046999.7,N,0.9
1504336715.8,286047002.6,N,1.0
1504336735.7,286047000.8,N,0.9
1504336755.5,286047000.2,N,0.9
1504336775.3,286046999.9,N,0.9
1504336795.2,286047000.8,N,0.9
1504336815.0,286047000.2,N,0.9
1504336815.9,286047000.2,N,0.9
1504336835.7,286046998.1,N,1.0
1504336855.6,286046998.8,N,1.0
1504336875.4,286046998.3,N,1.0
1504336895.3,286046998.9,N,1.0
1504336915.1,286047001.0,N,1.0
1504336916.0,286047001.0,N,1.0
1504336935.8,286047000.7,N,1.0
1504336955.7,286046998.8,N,1.0
1504336975.5,286046998.5,N,1.1
1504336995.4,286046998.5,N,1.1
1504337015.2,286046998.6,N,1.1
1504337035.0,286047001.2,N,1.1
1504337035.9,286047001.2,N,1.1
1504337055.8,286047001.0,N,1.1
1504337075.6,286047000.5,N,1.1
1504337095.4,286047000.1,N,1.1
1504337115.3,286047000.1,N,1.1
1504337135.1,286047000.0,N,1.1
1504337155.9,286047000.9,N,1.1
1504337175.7,286047002.3,N,1.1
1504337195.6,286046999.9,N,1.1
1504337215.4,286047002.8,N,1.2
1504337265.3,286047001.3,E,nan
1504337275.2,286046999.7,N,0.0
1504337295.0,286046998.5,P,0.6
1504337295.9,286046998.5,N,0.6
1504337315.8,286047000.0,N,0.7
1504337335.6,286047002.6,Y,0.0
1504337355.4,286047002.0,P,1.4
1504337375.3,286046999.7,N,1.2
1504337395.1,286046999.8,N,1.1
1504337415.9,286047000.5,N,1.0
1504337435.7,286047001.1,N,0.9
1504337455.5,286046998.8,N,1.0
1504337475.4,286047001.2,N,1.0
1504337495.2,286047001.1,N,1.0
1504337515.0,286047001.0,N,1.0
1504337516.0,286047001.0,N,0.9
1504337535.8,286047000.7,N,0.9
1504337555.6,286047002.4,N,1.0
1504337575.5,286047000.2,N,1.0
1504337595.3,286047002.6,N,1.1
1504337615.1,286047002.6,N,1.1
1504337635.9,286046999.8,N,1.1
1504337655.7,286047000.9,N,1.1
1504337675.6,286047000.3,N,1.1
1504337695.4,286047000.7,N,1.0
1504337715.2,286047000.3,N,1.0
1504337735.1,286047002.4,N,1.1
1504337736.0,286047002.4,N,1.1
1504337755.8,286047002.8,N,1.1
1504337775.7,286047002.4,N,1.1
1504337795.5,286047002.4,N,1.1
1504337815.3,286047000.1,N,1.1
1504337835.2,286047002.7,N,1.2
1504337855.0,286046999.9,N,1.2
1504337855.9,286046999.9,N,1.2
1504337875.8,286047000.9,N,1.1
1504337895.6,286046999.8,N,1.1
1504337915.4,286047000.5,N,1.1
1504337935.3,286047002.8,N,1.1
1504337955.1,286047002.0,N,1.1
1504337975.9,286047003.8,Y,0.0
1504337995.7,286047002.0,P,0.4
1504338015.5,286047001.8,P,0.3
1504338035.4,286047001.3,P,0.3
1504338055.2,286047001.3,Y,0.0
1504338075.1,286047002.8,P,0.6
1504338076.0,286047002.8,P,0.6
1504338095.8,286046999.7,N,1.3
1504338115.6,286047000.0,N,1.3
1504338135.5,286047000.1,N,1.3
1504338155.3,286047001.0,N,1.2
1504338175.2,286046999.8,N,1.2
1504338195.9,286047000.2,N,1.2
1504338215.7,286047000.0,N,1.1
1504338235.6,286047000.1,N,1.1
1504338255.4,286047002.8,N,1.2
1504338275.2,286047000.1,N,1.2
1504338295.1,286047000.4,N,1.1
1504338296.0,286047000.4,N,1.1
1504338315.8,286046998.5,N,1.2
1504338335.7,286047000.7,N,1.2
1504338355.5,286047001.2,N,1.1
1504338375.4,286046998.5,N,1.2
1504338395.2,286047001.2,N,1.2
1504338415.0,286046999.3,N,1.2
1504338415.9,286046999.3,N,1.2
1504338435.8,286046996.5,N,1.4
1504338455.6,286046996.6,N,1.6
1504338475.5,286046994.9,Y,0.0
1504338495.3,286046995.3,P,2.4
1504338515.1,286046995.5,N,2.2
1504338535.9,286046995.3,N,2.1
1504338555.7,286046996.2,N,1.9
1504338575.6,286046995.8,N,1.7
1504338595.4,286046994.5,Y,0.0
1504338615.3,286046999.6,P,1.6
1504338635.1,286046996.5,N,1.5
1504338636.0,286046996.5,N,1.4
1504338655.8,286046999.6,N,1.5
1504338675.7,286046997.8,N,1.4
1504338695.5,286046997.7,N,1.3
1504338715.4,286046997.6,N,1.2
1504338735.2,286046995.0,Y,0.0
1504338755.0,286046999.2,P,0.7
1504338755.9,286046999.2,N,0.7
1504338775.8,286046997.0,P,1.0
1504338795.6,286046999.1,N,0.9
1504338815.5,286046999.1,N,0.9
1504338835.3,286046997.0,Y,0.0
1504338855.1,286047001.1,P,1.3
1504338875.9,286046998.3,N,1.3
1504338895.7,286047000.7,N,1.2
1504338915.5,286047000.7,N,1.2
1504338935.4,286046999.3,N,1.1
1504338955.2,286046998.5,N,1.1
1504338975.1,286046999.4,N,1.0
1504338976.0,286046999.4,N,1.0
1504338995.8,286046996.8,Y,0.0
1504339015.6,286046999.1,P,0.2
1504339035.5,286046996.5,P,1.3
1504339055.3,286046999.4,N,1.2
1504339075.3,286046996.6,N,1.4
1504339095.1,286046999.5,N,1.3
1504339115.9,286046999.1,N,1.3
1504339135.7,286046999.3,N,1.2
1504339155.5,286046997.2,N,1.2
1504339175.4,286046997.6,N,1.2
1504339195.2,286046997.9,N,1.1
